Weather in Tim

Russia / Oryol Oblast     52°10′53″N   37°19′29″E
temp.,
°C
wind,
m/s
gust,
m/s
humid.,
%
clouds,
%
prec.,
mm/h
press.,
hPa
HPBL,
m
20 september, mon
mon2000:00+10ene249994 0.2 1008112
03:00+11e119999 0.2 100828
06:00+10se3699100 0.0 1007153
09:00+13se5992100 0.5 1007423
12:00+13ese5894100 1.3 1007323
15:00+12sw368199 2.6 1008531
18:00+10wsw3680100 0.1 1009300
21:00+9sw1283100 0.3 101158
21 september, tue
tue2100:00+9ssw2486100 0.0 1011178
03:00+8s3587100 0.0 1011222
06:00+8s3787100 0.1 1011428
09:00+9sw458496 0.1 1011675
12:00+9sw3575100 0.0 1012878
15:00+10sw3468100 0.0 10111070
18:00+9wsw2481100 0.3 1012300
21:00+7w2482100 0.3 1012191
22 september, wed
wed2200:00+7w348695 0.0 1012288
03:00+6wsw1286100 0.0 1011197
06:00+6ssw2390100 0.3 1011273
09:00+6ssw2388100 0.4 1011365
12:00+7s2386100 0.0 1011645
15:00+8s2284100 0.1 1012410
18:00+8wsw348699 0.1 1012325
21:00+7ssw3590100 0.1 1013338
23 september, thu
thu2300:00+6ssw2589100 0.0 1014421
03:00+6sse3489100 0.0 1014396
06:00+6sse3590100 0.0 1014388
09:00+6ssw3590100 0.2 1014563
12:00+7ssw3484100 0.2 1014727
15:00+8sw3471100 0.4 10131010
18:00+7sw358181 0.2 1013647
21:00+6sw258798 0.2 1013162
24 september, fri
fri2400:00+4ssw359438 0.0 1013108
03:00+5sw368992 0.0 1012261
06:00+5s36918 0.0 1011247
09:00+7ssw5882100 0.0 1010408
12:00+11ssw7955100 0.0 10071544
15:00+11s71154100 0.0 10051656
18:00+8s81585100 1.4 10041288
21:00+8ssw81392100 4.0 1002841